一网星座-0403星 (ONEWEB-0403 )

导读 | 豆包AI

ONEWEB-0403是英国OneWeb星座的低轨宽带卫星,于2021年12月27日发射入轨。OneWeb正打造由超600颗低轨卫星组成的全球互联网星座,旨在为全球各地用户提供覆盖广泛的高速宽带服务,填补偏远地区网络空白,推动全球互联基础设施建设,ONEWEB-0403是星座组网进程中重要的一环,助力OneWeb逐步完成全球网络布局。

基本信息
目录编号:
50483
目录名称:
ONEWEB-0403
国际标识:
2021-132Q
轨道中心:
EARTH
卫星名称:
一网星座-0403星
卫星全名:
一网星座-0403星 (ONEWEB-0403 )
卫星状态:
在轨 (已飞行1585 天)
发射日期:
2021-12-27 UTC
国别 :
英国 (GB)
星等 :
--
轨道信息
数据来源 国际轨道数据 AOE轨道数据
星历时间 2026-04-30T11:56:34+0800
5小时前
查看轨道信息
2026-04-26T05:00:00+0800
4天前
查看轨道信息
半长轴 7568.276km 7568.24km
偏心率 0.0001693 0.0001232
轨道倾角 87.920° 87.921°
近地点辐角 88.321° 115.250°
升交点赤经 345.007° 345.857°
平近点角 271.812° 55.823°
近地点 1188.857km 1189.17km
远地点 1191.421km 1191.036km
周期 109.208分钟 109.207分钟
每日圈数 13.185827 13.185921
详细信息
平衡模式:
三轴稳定
覆盖范围:
全球
运营商:
一网卫星公司
运营商所在国:
英国
制造商(研发单位):
一网卫星公司
制造商所在国:
英国
使用方式:
暂无
卫星简介
OneWeb卫星网络由648颗重约125公斤的微型卫星组成,运行在1200公里的轨道上。 每颗卫星都能够提供至少每秒8千兆位的吞吐量,以使用其高吞吐量的Ku频段有效载荷为家庭和移动平台提供互联网接入。该卫星仍在工作。
2D轨道图
3D轨道图
轨道高度分析图
轨道倾角分析图
轨道综合分析图
查看轨道综合分析图